Home > Weather > Kolding > Past weeks

Flag for Denmark Past Weather in Kolding, Denmark — Yesterday and Last 2 Weeks

Now
64 °F

Mild.


Feels Like: 64 °F
Forecast: 53 / 69 °F
Wind: 14 mph from Southwest

Location: Vamdrup

Current Time: Jul 26, 2016 at 12:30:28 PM

Latest Report: Jul 26, 2016 at 11:50 AM


Visibility: N/A

Pressure: 30.09 "Hg

Humidity: 78%

Dew Point: 57 °F

Location of KoldingLocation

Past Weather in Kolding — Graph

°F

Kolding Temperature Yesterday

Maximum temperature yesterday: 77 °F (at 2:20 PM)
Minimum temperature yesterday: 59 °F (at 2:20 AM)
Average temperature yesterday: 68 °F

High & Low Weather Summary for the Past Weeks

 TemperatureHumidityPressure
High81 °F (Jul 23, 2:20 PM)100% (Jul 12, 5:50 AM)30.15 "Hg (Jul 12, 5:50 AM)
Low46 °F (Jul 13, 4:20 AM)42% (Jul 23, 2:20 PM)29.62 "Hg (Jul 11, 9:20 PM)
Average63 °F82%30.00 "Hg
* Reported Jul 11 11:50 AM — Jul 26 11:20 AM, Kolding, Weather by CustomWeather, © 2016

Note: Actual official high and low records may vary slightly from our data, if they occured in-between our weather recording intervals... More about our weather records

Advertising

Kolding Weather History for the Previous 24 Hours

Scroll right to see more
 ConditionsComfort  
Time TempWeatherWind HumidityBarometerVisibility
11:20 AM
Tue, Jul 26
64 °FMild.14 mph73%30.09 "HgN/A
10:50 AM66 °FMild.13 mph68%30.09 "HgN/A
10:20 AM66 °FMild.12 mph73%30.09 "HgN/A
9:50 AM64 °FMild.13 mph73%30.07 "HgN/A
9:20 AM66 °FMild.8 mph78%30.07 "HgN/A
8:50 AM63 °FMild.7 mph83%30.09 "HgN/A
8:20 AM63 °FMild.8 mph83%30.07 "HgN/A
7:50 AM61 °FCool.7 mph88%30.07 "HgN/A
7:20 AM61 °FCool.7 mph88%30.07 "HgN/A
6:50 AM57 °FCool.5 mph94%30.07 "HgN/A
6:20 AM59 °FCool.6 mph94%30.07 "HgN/A
5:50 AM59 °FCool.7 mph94%30.04 "HgN/A
5:20 AM59 °FCool.6 mph94%30.04 "HgN/A
4:50 AM59 °FCool.6 mph94%30.04 "HgN/A
4:20 AM57 °FCool.7 mph100%30.04 "HgN/A
3:50 AM57 °FCool.6 mph94%30.04 "HgN/A
3:20 AM57 °FCool.6 mph100%30.04 "HgN/A
2:50 AM59 °FCool.5 mph94%30.04 "HgN/A
2:20 AM59 °FCool.6 mph94%30.04 "HgN/A
1:50 AM59 °FCool.3 mph94%30.04 "HgN/A
1:20 AM61 °FCool.5 mph94%30.04 "HgN/A
12:50 AM59 °FCool.6 mph94%30.04 "HgN/A
12:20 AM61 °FCool.6 mph94%30.04 "HgN/A
11:50 PM
Mon, Jul 25
63 °FMild.8 mph88%30.04 "HgN/A
11:20 PM63 °FMild.8 mph94%30.04 "HgN/A
10:50 PM63 °FMild.7 mph94%30.04 "HgN/A
10:20 PM63 °FMild.6 mph94%30.04 "HgN/A
9:50 PM66 °FMild.9 mph88%30.04 "HgN/A
9:20 PM66 °FMild.8 mph88%30.04 "HgN/A
8:50 PM66 °FMild.9 mph88%30.04 "HgN/A
8:20 PM68 °FMild.10 mph83%30.04 "HgN/A
7:50 PM68 °FMild.12 mph83%30.04 "HgN/A
7:20 PM70 °FMild.13 mph78%30.01 "HgN/A
6:50 PM72 °FMild.12 mph73%30.01 "HgN/A
6:20 PM70 °FMild.14 mph78%30.01 "HgN/A
5:50 PM72 °FMild.14 mph73%30.01 "HgN/A
5:20 PM73 °FMild.15 mph65%30.01 "HgN/A
4:50 PM73 °FMild.12 mph69%30.01 "HgN/A
4:20 PM72 °FMild.14 mph73%30.01 "HgN/A
3:50 PM73 °FMild.13 mph74%30.01 "HgN/A
3:20 PM73 °FMild.12 mph74%30.01 "HgN/A
2:50 PM73 °FMild.14 mph74%30.01 "HgN/A
2:20 PM77 °FWarm.12 mph65%30.01 "HgN/A
1:50 PM75 °FMild.8 mph74%30.01 "HgN/A
1:20 PM73 °FMild.9 mph74%30.01 "HgN/A
12:50 PM75 °FMild.8 mph69%30.01 "HgN/A
12:20 PM75 °FMild.6 mph65%30.01 "HgN/A
Weather by CustomWeather, © 2016

See weather overviewHow to use our weather pages